Location: Al Mulaqqa?ah
(24.1833°N, 32.8833°E)
Time: 21:20:48
(UTC+00:00)

deb Chang Zheng 4 - Pass Details

Date: 26 September 2021
Orbit: 596 x 619 km, 98.6° (Epoch: 15 October)

Event Time Altitude Azimuth Distance (km) Brightness Sun altitude
Rises 16:05:43 0° 177° (S) 2,854 6.9 -6.6°
Reaches altitude 10° 16:07:56 10° 181° (S) 1,949 6.1 -7.1°
Maximum altitude 16:12:03 53° 258° (WSW) 744 4.5 -8.0°
Drops below altitude 10° 16:16:11 10° 336° (NNW) 1,943 6.5 -8.9°
Sets 16:18:23 0° 341° (NNW) 2,845 7.3 -9.4°
